Theta_e
295 295 295 295 296 296 296 297 298 298 298 299 299 299 299 299 299 299 299 300 299 299 299 298 298 298 298 298 298 298 298 298 297 297 296 297 296 296 295 295 295 295
293 293 293 294 294 294 295 295 296 296 297 297 298 298 298 298 298 298 298 299 299 299 298 298 298 298 298 298 297 297 297 297 297 297 296 296 296 296 295 295 295 295
291 291 292 292 292 292 293 293 294 294 294 295 295 296 296 297 297 297 297 298 298 298 298 297 297 297 297 297 297 297 297 297 297 297 296 296 296 296 295 295 295 295
289 289 290 289 289 290 290 291 291 292 292 293 293 294 294 294 295 295 296 296 297 297 297 297 296 296 296 296 296 297 296 296 296 296 296 296 296 295 295 295 295 294
288 288 288 288 288 288 288 288 289 289 289 290 291 292 292 293 293 293 294 294 295 295 295 296 296 296 296 296 296 296 296 296 296 296 296 295 295 295 295 295 295 294
286 286 286 287 287 286 286 287 287 287 287 288 288 289 290 291 292 292 292 293 293 294 294 294 295 295 295 295 295 295 295 295 295 295 295 295 295 295 295 294 294 294
286 286 286 286 286 286 286 286 286 286 286 286 286 287 287 288 289 290 291 292 292 293 293 293 294 294 294 295 295 295 295 295 295 295 295 294 294 294 294 294 294 294
287 287 286 286 286 286 286 286 286 286 286 286 286 286 286 286 286 287 288 289 290 291 292 292 293 293 293 293 294 294 294 294 294 294 294 294 294 294 294 294 294 293
288 287 287 287 286 286 286 286 286 285 286 285 285 286 286 286 286 285 286 286 287 288 289 290 291 292 292 292 293 293 294 294 294 294 294 294 293 293 293 293 293 293
288 287 287 287 287 287 286 286 286 286 285 285 285 285 285 285 286 285 285 285 285 286 286 287 288 290 291 291 292 292 292 293 293 293 293 293 293 293 293 293 293 292
287 287 287 287 287 287 287 286 286 286 286 285 285 285 285 285 285 285 285 285 285 285 285 285 286 287 288 290 290 291 291 291 292 292 292 293 293 292 292 292 292 292
287 287 287 287 286 287 286 286 286 286 286 285 285 285 285 285 285 285 285 285 285 285 285 285 285 285 285 287 288 289 290 290 290 291 291 291 292 292 292 292 292 292
287 287 287 287 286 286 286 286 286 286 286 285 285 285 285 285 284 284 285 285 285 285 285 285 285 285 285 285 285 286 288 289 290 290 290 290 290 290 291 291 291 291
287 287 287 286 286 286 286 286 286 286 286 286 285 285 285 285 284 284 284 284 284 285 285 285 285 285 285 285 284 285 285 287 288 289 289 289 289 290 290 290 290 290
287 287 286 286 286 286 286 286 286 286 286 286 285 285 285 285 285 284 284 284 284 284 284 285 285 285 285 285 285 285 285 285 286 287 288 289 289 289 289 289 289 289
286 286 286 286 286 285 285 285 285 285 285 285 285 285 285 285 285 284 284 284 284 284 284 284 285 285 285 285 285 285 285 285 285 285 286 287 288 289 289 289 289 289
286 286 286 285 285 285 285 285 285 285 285 285 285 285 284 284 284 284 284 284 284 284 284 284 285 285 284 285 285 285 285 285 285 284 284 285 286 287 288 288 288 289
286 286 285 285 285 285 285 285 285 285 284 284 284 284 284 284 283 283 283 283 283 283 284 284 284 284 284 284 285 285 285 285 285 285 285 284 284 285 286 287 288 288
285 285 285 285 285 284 284 284 284 284 284 284 284 284 284 283 283 283 282 282 282 282 283 283 284 284 284 284 284 284 284 285 285 285 285 285 285 285 285 286 287 287
283 284 284 284 284 284 283 283 284 284 284 283 283 283 283 283 283 282 282 282 281 281 282 282 283 283 283 283 284 284 284 284 285 285 285 285 285 285 285 286 286 287
282 282 282 282 281 281 281 282 282 282 282 282 282 282 282 282 282 281 281 281 281 280 281 281 281 282 282 283 284 284 284 285 285 285 285 285 285 285 285 285 285 286
279 278 278 278 278 278 278 279 279 279 279 279 279 279 280 280 280 280 280 280 280 280 280 280 280 280 281 281 282 283 284 284 285 285 285 285 285 285 285 285 285 285
276 275 275 275 275 276 276 276 276 276 276 276 277 277 277 277 278 278 278 278 278 279 279 279 279 279 280 280 281 282 283 284 284 285 285 285 285 284 284 284 284 285
273 272 272 273 273 273 273 273 273 273 273 273 273 274 274 275 275 276 276 277 277 277 278 278 278 278 279 280 280 281 282 283 283 283 284 284 284 284 284 284 284 284
270 269 269 270 270 270 269 269 269 269 270 270 270 271 272 272 273 274 274 275 275 276 276 277 277 277 278 279 279 280 280 281 281 282 282 283 283 283 283 283 283 284
267 266 266 266 266 266 266 266 266 267 267 267 268 268 269 270 271 271 272 272 273 274 274 275 275 276 276 277 277 278 278 279 279 280 281 281 281 282 282 283 283 283
Wind_Speed
24 22 20 18 16 15 14 14 13 13 13 13 14 14 14 14 14 14 14 14 14 15 16 17 18 19 21 22 23 26 28 29 30 31 31 32 35 37 38 38 37 35
24 24 23 22 21 19 17 16 14 13 13 12 12 13 14 14 14 15 15 14 14 15 16 17 18 19 21 22 23 25 26 28 30 31 31 32 32 35 38 39 39 38
25 25 24 24 23 21 19 18 17 15 14 13 12 12 13 14 14 14 14 14 15 16 17 18 18 19 20 21 22 24 25 27 28 30 31 32 32 33 35 37 39 40
26 25 24 23 23 23 22 21 21 20 19 17 15 14 13 13 14 14 14 14 16 17 18 19 19 19 20 21 22 24 25 26 27 28 30 32 33 33 34 34 36 39
24 24 23 23 23 24 24 24 23 22 22 21 20 18 17 16 16 15 15 15 16 17 18 19 19 19 20 21 22 24 25 26 26 27 29 32 32 33 34 34 35 37
22 23 23 22 23 24 24 24 24 23 23 23 22 22 22 21 20 19 18 17 16 17 18 18 19 19 20 20 22 24 25 26 27 27 28 30 31 33 33 34 34 35
21 22 22 22 22 23 24 24 25 25 25 25 24 24 24 23 22 21 20 18 18 18 18 18 18 19 19 20 21 23 25 26 27 27 29 29 30 31 32 33 34 35
17 17 18 19 20 21 22 23 24 25 25 26 26 26 25 24 23 21 20 19 18 17 17 18 18 19 19 19 21 22 24 25 27 27 29 30 30 31 32 32 33 34
14 14 15 16 17 17 19 20 22 23 23 25 26 26 26 26 26 24 23 22 20 18 17 17 18 19 19 19 20 22 23 25 26 27 29 30 30 31 32 32 33 33
14 14 15 16 16 15 16 17 19 20 21 23 25 25 26 26 27 27 27 26 25 24 22 19 18 18 18 18 19 21 22 24 25 27 28 29 31 31 31 31 32 32
15 15 17 18 18 18 18 18 20 20 20 21 23 24 25 26 26 27 28 28 28 27 27 25 23 21 19 18 18 19 21 23 24 26 27 28 30 31 31 31 32 32
16 17 18 19 20 20 20 21 23 23 22 22 23 22 23 24 25 25 26 27 28 28 28 27 27 26 24 22 21 20 21 22 23 25 26 28 29 29 30 30 31 33
18 19 20 21 22 22 22 23 25 26 26 26 26 25 24 25 25 24 25 25 27 28 27 28 28 28 27 26 25 23 23 24 24 25 26 27 28 29 29 30 31 32
21 22 23 25 25 25 26 27 29 30 30 31 30 29 28 28 27 26 26 26 26 26 26 27 28 28 28 28 28 26 25 25 26 27 28 28 29 29 30 30 31 32
23 24 25 27 28 29 30 31 32 33 34 34 34 33 33 33 31 30 28 27 26 26 26 26 26 27 28 28 28 27 26 26 27 28 29 29 30 30 30 30 31 32
24 25 27 28 30 31 31 32 33 35 35 36 36 36 36 36 35 34 32 30 29 28 28 27 27 27 28 27 27 27 27 28 28 28 29 29 30 31 31 31 31 31
28 30 31 32 32 32 32 33 34 35 35 35 35 35 35 35 34 35 35 35 34 34 33 31 30 30 30 28 27 27 28 29 30 30 30 30 31 31 32 32 32 32
29 31 33 34 35 34 35 35 35 35 35 35 35 35 35 34 33 33 34 35 35 36 36 36 37 37 35 32 31 31 31 30 31 32 31 32 32 32 33 33 33 33
29 30 31 33 34 34 35 36 36 37 37 36 36 36 35 35 35 36 36 36 35 35 36 37 39 39 39 38 37 36 36 33 33 33 33 33 33 33 34 34 33 33
28 29 30 31 32 33 33 34 35 35 35 35 35 34 35 36 37 38 39 40 39 38 38 38 39 40 40 39 39 39 39 37 36 36 36 36 35 34 34 34 34 34
27 27 28 30 31 32 32 32 33 33 33 34 34 35 36 37 37 38 39 41 41 41 41 42 43 44 43 39 36 36 36 36 36 36 37 38 37 37 37 36 36 35
26 28 31 33 34 34 34 34 35 35 36 36 36 36 37 37 38 39 40 42 43 42 42 43 46 49 48 44 40 36 36 36 37 37 37 37 38 38 38 39 38 37
28 30 32 34 34 33 34 35 35 36 37 37 36 37 38 39 40 41 41 42 43 44 43 43 45 48 49 49 46 41 38 37 36 35 35 36 38 39 39 39 39 39
29 29 30 32 32 32 33 35 36 38 38 38 37 38 40 41 41 41 42 42 42 43 44 44 46 49 48 46 43 41 39 38 37 35 35 36 38 40 41 40 40 41
29 29 30 31 32 34 35 36 38 39 39 39 38 38 40 42 42 41 42 42 42 43 44 44 45 48 48 45 42 41 41 41 39 36 35 35 37 38 40 40 40 41
29 29 30 31 32 34 36 36 36 37 38 38 38 38 39 41 42 42 43 45 45 43 44 45 45 47 48 46 44 43 43 42 40 37 36 36 37 37 38 39 40 40
Wind_Direction
50 47 43 38 30 21 15 9 3 360 356 350 344 336 330 326 322 318 309 297 292 293 293 291 285 279 273 268 263 258 255 252 250 249 248 245 242 239 239 239 238 238
47 45 43 39 35 30 26 19 11 5 358 351 345 337 332 326 320 317 314 306 297 296 298 296 290 285 279 274 269 264 259 256 254 251 251 250 247 244 242 241 241 241
43 42 40 36 34 32 30 29 26 20 11 2 354 342 332 325 319 316 314 310 304 300 299 298 294 289 284 279 274 269 264 261 258 256 254 252 251 249 246 244 243 243
40 40 38 34 32 31 31 32 30 27 23 17 11 359 347 335 325 320 318 315 310 306 303 299 297 293 288 283 278 273 269 265 263 260 257 255 254 253 251 249 247 246
40 38 36 32 29 27 27 28 26 24 22 21 19 14 6 357 347 339 332 324 317 312 308 304 300 296 293 289 283 277 273 269 267 263 261 259 257 256 254 252 250 248
38 36 33 29 26 23 22 22 21 19 18 17 17 16 12 8 4 357 347 335 325 317 312 309 304 300 296 292 287 282 277 273 270 266 262 261 260 259 257 255 253 250
32 30 27 24 22 19 17 16 14 13 11 9 10 11 11 10 8 6 359 348 336 326 319 313 308 303 299 295 289 284 280 277 273 268 264 262 262 260 259 257 255 254
23 22 20 17 15 13 11 9 7 6 4 2 2 2 3 4 4 4 1 356 348 339 330 322 315 308 304 299 291 285 282 278 275 272 268 265 263 260 259 258 257 255
11 11 10 8 6 5 3 2 360 358 357 355 354 353 353 354 355 354 353 351 350 347 341 333 324 316 309 303 296 290 285 281 277 273 271 269 266 263 261 259 257 255
4 2 360 359 357 354 352 352 351 348 347 346 346 345 344 344 344 345 345 344 343 343 341 338 332 324 315 306 299 294 289 286 282 276 272 270 267 266 264 262 259 257
359 353 350 351 349 345 341 341 342 340 336 336 337 337 336 337 336 336 336 336 336 336 335 334 333 329 323 314 305 297 291 287 285 282 278 275 272 269 268 266 263 261
351 346 344 344 342 340 337 333 334 334 330 328 329 328 327 328 329 328 328 327 326 326 326 326 327 326 324 321 315 308 301 294 288 284 282 280 278 275 273 270 268 265
343 339 337 337 336 334 331 328 327 326 324 323 322 321 319 319 320 319 319 318 317 317 317 318 319 319 318 319 317 314 309 304 298 292 287 284 280 277 275 273 271 268
336 334 333 332 331 330 326 324 324 322 321 319 317 315 314 314 314 312 311 310 310 309 309 309 309 309 310 312 313 312 308 305 302 298 294 290 286 281 276 273 271 268
330 328 327 326 325 323 321 320 319 318 317 315 313 311 310 310 309 308 306 305 304 302 300 299 297 296 299 302 304 304 304 302 299 296 293 290 287 285 280 275 272 270
321 320 319 319 317 315 313 313 313 313 312 310 308 307 307 307 307 305 304 302 300 298 295 292 288 286 289 292 292 292 294 295 294 293 292 289 286 285 283 280 277 274
314 315 315 314 313 312 311 310 309 308 307 305 304 303 303 303 303 301 301 300 300 298 296 291 287 285 285 285 283 284 285 286 288 290 291 291 288 285 283 283 281 279
310 311 311 311 310 310 310 309 308 306 305 303 302 302 301 301 299 297 297 297 296 295 293 290 288 287 286 284 281 281 280 280 281 282 284 286 286 284 282 281 280 279
309 308 307 306 306 307 307 307 305 302 301 301 300 300 299 298 296 295 295 295 293 290 288 286 285 285 284 283 282 282 281 280 278 277 277 279 279 278 278 277 275 274
311 309 307 305 305 306 306 305 302 300 299 299 299 299 298 295 294 293 293 292 292 291 289 286 284 282 281 279 278 278 279 278 277 275 275 275 274 272 272 272 272 270
314 312 311 309 309 309 308 306 304 302 301 300 300 299 297 294 292 291 290 290 290 289 289 287 285 284 283 279 275 273 273 273 272 271 272 272 271 270 269 270 270 269
315 314 312 310 309 308 306 304 303 302 301 300 300 298 295 292 290 289 288 288 287 286 285 283 283 283 283 281 279 277 274 272 269 267 266 266 267 268 268 268 269 269
315 315 312 310 308 306 304 303 301 300 299 299 298 296 293 290 288 286 285 284 283 282 281 279 279 279 279 279 279 279 277 275 271 267 265 264 265 266 266 266 266 266
313 313 310 308 306 303 302 301 299 298 297 297 296 294 291 288 287 285 283 281 279 278 277 277 277 277 277 276 276 276 276 275 274 272 268 266 265 266 266 265 264 263
310 308 306 305 303 300 300 299 298 298 297 296 294 292 290 289 287 286 283 281 279 277 276 275 274 275 274 274 274 274 275 275 275 274 271 268 266 266 266 266 264 263
308 307 306 304 302 300 300 299 298 298 297 296 294 293 291 289 288 287 286 284 282 279 277 275 274 274 274 274 274 274 274 274 273 272 270 269 269 267 266 266 264 261